Location: Makanda
(37.6176°N, 89.2090°W)
Time: 02:07:30
(UTC+00:00)

Lacrosse 5 - Pass Details

Date: 23 September 2019
Orbit: 715 x 724 km, 57.0° (Epoch: 16 October)

Event Time Altitude Azimuth Distance (km) Brightness Sun altitude
Exits shadow 11:12:36 - 305° (NW) 3,026 4.6 -7.3°
Reaches altitude 10° 11:15:03 10° 294° (WNW) 2,199 3.8 -6.8°
Maximum altitude 11:19:10 25° 239° (WSW) 1,409 2.9 -6.0°
Drops below altitude 10° 11:23:17 10° 184° (S) 2,192 4.3 -5.2°
Sets 11:25:59 0° 172° (S) 3,110 5.2 -4.7°
